Regional Weather Roundup
Issued by NWS

Home | Current Version | Previous Version | Graphics & Text | Print | Product List | Glossary On
Versions: 1 2 3 4 5 6 7 8 9 10 11 12 13 14 15 16 17 18 19 20 21 22 23 24 25 26 27 28 29 30 31 32 33 34 35 36 37 38 39 40 41 42 43 44 45 46 47 48 49 50
000
ASUS43 KLSX 190159
RWRMO

WEATHER SUMMARY FOR MISSOURI
NATIONAL WEATHER SERVICE SPRINGFIELD MO
800 PM CST THU DEC 18 2014

NOTE: "FAIR" INDICATES FEW OR NO CLOUDS BELOW 12,000 FEET WITH NO
       SIGNIFICANT WEATHER AND/OR OBSTRUCTIONS TO VISIBILITY.
       CURRENT SKY AND/OR WEATHER CONDITIONS ARE NOT AVAILABLE FOR
       CHILLICOTHE AND FARMINGTON.

MOZ001>031-035>038-043-044-053-054-190300-
...NORTHERN AND WESTERN MISSOURI...

CITY           SKY/WX    TMP DP  RH WIND       PRES   REMARKS
KANSAS CTY INT CLOUDY    31  29  92 NE6       30.23S FOG     WCI  25
KANSAS C DTWN  CLOUDY    33  29  85 E3        30.25R
LEE`S SUMMIT   CLOUDY    32  29  88 E3        30.24R
ST JOSEPH      CLOUDY    31  28  89 E5        30.26R WCI  26
CHILLICOTHE      N/A     31  26  82 CALM      30.27S
KIRKSVILLE     CLOUDY    29  27  92 E6        30.26R WCI  23

$$
MOZ066>068-077>081-088>096-101>105-190300-
...SOUTHWEST MISSOURI...

CITY           SKY/WX    TMP DP  RH WIND       PRES   REMARKS
SPRINGFIELD    CLOUDY    38  36  92 CALM      30.19R
JOPLIN         CLOUDY    37  36  96 N5        30.22R FOG

$$
MOZ032>034-039>042-045>050-055>058-069>072-190300-
...CENTRAL MISSOURI...

CITY           SKY/WX    TMP DP  RH WIND       PRES   REMARKS
COLUMBIA       CLOUDY    32  30  92 E7        30.25R WCI  26
JEFFERSON CITY CLOUDY    34  30  85 E7        30.26S WCI  28
ROLLA          FOG       33  32  96 E6        30.21R VSB 3/4 WCI  28
SEDALIA        CLOUDY    34  31  88 E5        30.24S FOG     WCI  30
OSAGE BEACH    CLOUDY    34  32  93 NE3       30.22F VSB 1/2

$$
MOZ051-052-059>065-190300-
...EAST CENTRAL MISSOURI...

CITY           SKY/WX    TMP DP  RH WIND       PRES   REMARKS
ST LOUIS INTL  CLOUDY    35  24  64 E6        30.28R
SPIRIT OF STL  CLOUDY    34  27  75 NE5       30.27R WCI  30
ST CHARLES     CLOUDY    32  26  78 NE8       30.28R WCI  25

$$
MOZ072>076-082>087-097>100-106>115-190300-
...SOUTH CENTRAL AND SOUTHEAST MISSOURI...

CITY           SKY/WX    TMP DP  RH WIND       PRES   REMARKS
CAPE GIRARDEAU CLOUDY    36  33  89 CALM      30.26S
FARMINGTON     CLOUDY    34  34 100 N5        30.25R WCI  30
POPLAR BLUFF   CLOUDY    37  32  82 NE5       30.25R
WEST PLAINS    CLOUDY    36  34  92 CALM      30.21R FOG

$$



USA.gov is the U.S. government's official web portal to all federal, state and local government web resources and services.